Home   Weather   Kristiansund   Past weeks
Flag for Norway

Past Weather in Kristiansund, Norway — Yesterday and Last 2 Weeks

Now
39 °F

Partly cloudy.


Feels Like: 39 °F
Forecast: 50 / 42 °F
Wind: No wind

Location: Kristiansund / Kvernberget

Current Time: Oct 21, 2019 at 7:06:08 am

Latest Report: Oct 21, 2019 at 6:20 am


Visibility: N/A

Pressure: 30.04 "Hg

Humidity: 93%

Dew Point: 37 °F

Location of KristiansundLocation

Past Weather in Kristiansund — Graph

°F

Kristiansund Temperature Yesterday

Maximum temperature yesterday: 48 °F (at 12:20 pm)
Minimum temperature yesterday: 41 °F (at 5:50 am)
Average temperature yesterday: 44 °F

High & Low Weather Summary for the Past Weeks

 TemperatureHumidityPressure
High54 °F (Oct 9, 2:50 pm)93% (Oct 11, 2:20 am)30.27 "Hg (Oct 11, 2:20 am)
Low34 °F (Oct 7, 5:50 am)43% (Oct 6, 3:20 pm)29.15 "Hg (Oct 11, 7:50 pm)
Average44 °F74%29.64 "Hg
* Reported Oct 6 5:20 am — Oct 21 5:50 am, Kristiansund. Weather by CustomWeather, © 2019

Note: Actual official high and low records may vary slightly from our data, if they occured in-between our weather recording intervals... More about our weather records

Advertising

Kristiansund Weather History for the Previous 24 Hours

Scroll right to see more
 ConditionsComfort  
Time TempWeatherWind HumidityBarometerVisibility
5:50 am
Mon, Oct 21
39 °FPassing clouds.1 mph93%30.04 "HgN/A
5:20 am39 °FPartly cloudy.2 mph93%30.04 "HgN/A
4:50 am39 °FMostly cloudy.3 mph93%30.04 "HgN/A
4:20 am41 °FDrizzle. Overcast.2 mph93%30.04 "HgN/A
3:50 am41 °FRain. Overcast.3 mph87%30.04 "Hg5 mi
3:20 am41 °FMostly cloudy.5 mph87%30.04 "HgN/A
2:50 am41 °FPassing clouds.2 mph87%30.04 "HgN/A
1:50 am41 °FOvercast.3 mph87%30.04 "HgN/A
1:20 am41 °FLight rain. Overcast.5 mph87%30.04 "HgN/A
12:50 am41 °FLight rain. Overcast.3 mph87%30.04 "HgN/A
12:20 am41 °FMostly cloudy.2 mph87%30.04 "HgN/A
11:50 pm
Sun, Oct 20
41 °FLight rain. Overcast.3 mph87%30.01 "HgN/A
11:20 pm41 °FSprinkles. Passing clouds.2 mph81%30.01 "HgN/A
10:50 pm43 °FPassing clouds.2 mph76%30.01 "HgN/A
10:20 pm41 °FPassing clouds.2 mph81%30.01 "HgN/A
9:50 pm43 °FPassing clouds.2 mph71%29.98 "HgN/A
9:20 pm43 °FPassing clouds.3 mph71%29.98 "HgN/A
8:50 pm41 °FPassing clouds.5 mph70%29.98 "HgN/A
8:20 pm41 °FPassing clouds.5 mph76%29.98 "HgN/A
7:50 pm41 °FPassing clouds.3 mph70%29.95 "HgN/A
7:20 pm41 °FPassing clouds.6 mph70%29.95 "HgN/A
6:50 pm43 °FPassing clouds.6 mph71%29.95 "HgN/A
6:20 pm43 °FPassing clouds.6 mph71%29.92 "HgN/A
5:50 pm43 °FSunny.3 mph71%29.92 "Hg10 mi
5:20 pm45 °FPassing clouds.5 mph66%29.89 "HgN/A
4:50 pm46 °FSunny.7 mph62%29.89 "Hg10 mi
4:20 pm46 °FSunny.9 mph66%29.89 "Hg10 mi
3:50 pm46 °FSunny.8 mph66%29.86 "Hg10 mi
3:20 pm48 °FPassing clouds.7 mph62%29.86 "HgN/A
2:50 pm48 °FPassing clouds.6 mph66%29.86 "HgN/A
2:20 pm48 °FPassing clouds.7 mph66%29.86 "HgN/A
1:50 pm48 °FSunny.7 mph62%29.83 "Hg10 mi
1:20 pm48 °FPassing clouds.3 mph54%29.83 "HgN/A
12:50 pm48 °FPassing clouds.6 mph54%29.83 "HgN/A
12:20 pm48 °FPassing clouds.6 mph58%29.83 "HgN/A
11:50 am46 °FPassing clouds.7 mph62%29.80 "HgN/A
11:20 am46 °FPassing clouds.7 mph57%29.80 "HgN/A
10:50 am46 °FPassing clouds.5 mph62%29.80 "HgN/A
10:20 am45 °FPassing clouds.5 mph66%29.80 "HgN/A
9:50 am43 °FSunny.6 mph71%29.80 "Hg10 mi
9:20 am43 °FPassing clouds.6 mph71%29.80 "HgN/A
8:50 am43 °FPassing clouds.6 mph71%29.80 "HgN/A
8:20 am43 °FClear.7 mph71%29.80 "Hg10 mi
7:50 am43 °FPassing clouds.7 mph71%29.77 "HgN/A
7:20 am41 °FClear.8 mph76%29.77 "Hg10 mi
Weather by CustomWeather, © 2019

See weather overview